• In Czech Republic
  • List of Countries
  • For 7 days
  • Water Temperature
  • Satellite Maps
  • Weather Map
  • Weather Widgets
  • user-avatar
    Login

    Hourly Weather Almaty

    Today, 21 September, Friday

    Time Temperature Precipitation Wind Pressure Humidity
    00:00 +18°C° 0.2 mm 2 mps 688 mmHg 64%
    01:00 +18°C° 0.2 mm 2 mps 688 mmHg 64%
    02:00 +18°C° 0.2 mm 2 mps 687 mmHg 64%
    03:00 +18°C° 0.3 mm 2 mps 688 mmHg 65%
    04:00 +18°C° 0.3 mm 2 mps 688 mmHg 66%
    05:00 +18°C° 0.3 mm 2 mps 688 mmHg 68%
    06:00 +18°C° 0.2 mm 2 mps 688 mmHg 67%
    07:00 +19°C° 0.2 mm 2 mps 689 mmHg 66%
    08:00 +20°C° 0.2 mm 2 mps 689 mmHg 65%
    09:00 +20°C° 0.2 mm 2 mps 689 mmHg 64%
    10:00 +21°C° 0.2 mm 2 mps 689 mmHg 63%
    11:00 +22°C° 0.2 mm 3 mps 689 mmHg 62%
    12:00 +21°C° 0.7 mm 3 mps 689 mmHg 65%
    13:00 +20°C° 0.7 mm 2 mps 689 mmHg 69%
    14:00 +19°C° 0.7 mm 2 mps 689 mmHg 72%
    15:00 +19°C° 0.7 mm 2 mps 689 mmHg 76%
    16:00 +18°C° 0.7 mm 2 mps 689 mmHg 79%
    17:00 +19°C° 0.7 mm 1 mps 689 mmHg 82%
    18:00 +18°C° 0.2 mm 1 mps 690 mmHg 84%
    19:00 +16°C° 0.2 mm 1 mps 690 mmHg 85%
    20:00 +16°C° 0.2 mm 1 mps 690 mmHg 87%
    21:00 +16°C° 0 mm 1 mps 690 mmHg 85%
    22:00 +16°C° 0 mm 1 mps 690 mmHg 83%
    23:00 +15°C° 0 mm 2 mps 690 mmHg 81%

    Tomorrow, 22 September, Saturday

    Time Temperature Precipitation Wind Pressure Humidity
    00:00 +15°C° 0 mm 2 mps 690 mmHg 80%
    01:00 +15°C° 0 mm 2 mps 690 mmHg 78%
    02:00 +15°C° 0 mm 2 mps 689 mmHg 77%
    03:00 +15°C° 0.1 mm 2 mps 689 mmHg 78%
    04:00 +15°C° 0.1 mm 2 mps 690 mmHg 79%
    05:00 +15°C° 0.1 mm 1 mps 690 mmHg 80%
    06:00 +16°C° 0.1 mm 1 mps 690 mmHg 77%
    07:00 +18°C° 0.1 mm 1 mps 690 mmHg 75%
    08:00 +19°C° 0.1 mm 1 mps 691 mmHg 72%
    09:00 +19°C° 0.1 mm 2 mps 690 mmHg 69%
    10:00 +20°C° 0.1 mm 2 mps 690 mmHg 67%
    11:00 +21°C° 0.1 mm 2 mps 690 mmHg 64%
    12:00 +23°C° 0.1 mm 2 mps 690 mmHg 62%
    13:00 +23°C° 0.1 mm 2 mps 690 mmHg 61%
    14:00 +24°C° 0.1 mm 2 mps 689 mmHg 59%
    15:00 +23°C° 0.1 mm 2 mps 689 mmHg 61%
    16:00 +23°C° 0.1 mm 2 mps 689 mmHg 63%
    17:00 +22°C° 0.1 mm 1 mps 689 mmHg 65%
    18:00 +21°C° 0.4 mm 1 mps 690 mmHg 68%
    19:00 +20°C° 0.4 mm 1 mps 690 mmHg 72%
    20:00 +19°C° 0.4 mm 1 mps 690 mmHg 75%
    21:00 +19°C° 0.5 mm 1 mps 690 mmHg 74%
    22:00 +18°C° 0.5 mm 1 mps 690 mmHg 73%
    23:00 +18°C° 0.5 mm 1 mps 690 mmHg 73%

    Day after tomorrow, 23 September, Sunday

    Time Temperature Precipitation Wind Pressure Humidity
    00:00 +18°C° 0.7 mm 1 mps 689 mmHg 74%
    01:00 +18°C° 0.7 mm 1 mps 689 mmHg 75%
    02:00 +18°C° 0.7 mm 1 mps 689 mmHg 76%
    03:00 +18°C° 0.6 mm 1 mps 690 mmHg 78%
    04:00 +16°C° 0.6 mm 1 mps 690 mmHg 81%
    05:00 +16°C° 0.6 mm 1 mps 690 mmHg 83%
    06:00 +16°C° 0.4 mm 1 mps 690 mmHg 81%
    07:00 +18°C° 0.4 mm 1 mps 690 mmHg 80%
    08:00 +18°C° 0.4 mm 1 mps 690 mmHg 78%
    09:00 +19°C° 0.3 mm 1 mps 690 mmHg 74%
    10:00 +19°C° 0.3 mm 2 mps 690 mmHg 70%
    11:00 +20°C° 0.3 mm 2 mps 689 mmHg 65%
    12:00 +21°C° 0.5 mm 2 mps 689 mmHg 64%
    13:00 +21°C° 0.5 mm 2 mps 689 mmHg 62%
    14:00 +23°C° 0.5 mm 2 mps 688 mmHg 61%
    15:00 +21°C° 0.8 mm 2 mps 688 mmHg 62%
    16:00 +21°C° 0.8 mm 2 mps 688 mmHg 64%
    17:00 +20°C° 0.8 mm 2 mps 688 mmHg 66%
    18:00 +19°C° 0.6 mm 2 mps 689 mmHg 68%
    19:00 +18°C° 0.6 mm 2 mps 689 mmHg 70%
    20:00 +18°C° 0.6 mm 2 mps 689 mmHg 72%
    21:00 +17°C° 1.3 mm 2 mps 689 mmHg 76%
    22:00 +17°C° 1.3 mm 2 mps 689 mmHg 79%
    23:00 +16°C° 1.3 mm 3 mps 689 mmHg 82%

    24 September, Monday

    Time Temperature Precipitation Wind Pressure Humidity
    00:00 +16°C° 1.6 mm 3 mps 689 mmHg 83%
    01:00 +14°C° 1.6 mm 3 mps 689 mmHg 83%
    02:00 +14°C° 1.6 mm 3 mps 689 mmHg 83%
    03:00 +15°C° 0.6 mm 2 mps 689 mmHg 80%
    04:00 +15°C° 0.6 mm 2 mps 689 mmHg 77%
    05:00 +14°C° 0.6 mm 2 mps 689 mmHg 74%
    06:00 +15°C° 0.2 mm 2 mps 689 mmHg 71%
    07:00 +16°C° 0.2 mm 2 mps 689 mmHg 68%
    08:00 +17°C° 0.2 mm 2 mps 690 mmHg 65%
    09:00 +18°C° 0.1 mm 2 mps 689 mmHg 63%
    10:00 +19°C° 0.1 mm 2 mps 689 mmHg 61%
    11:00 +19°C° 0.1 mm 3 mps 689 mmHg 59%
    12:00 +19°C° 0.4 mm 3 mps 689 mmHg 59%
    13:00 +19°C° 0.4 mm 3 mps 689 mmHg 59%
    14:00 +19°C° 0.4 mm 3 mps 689 mmHg 59%
    15:00 +19°C° 0.6 mm 3 mps 689 mmHg 61%
    16:00 +18°C° 0.6 mm 2 mps 689 mmHg 64%
    17:00 +17°C° 0.6 mm 2 mps 689 mmHg 67%
    18:00 +16°C° 0.3 mm 2 mps 690 mmHg 69%
    19:00 +15°C° 0.3 mm 2 mps 690 mmHg 72%
    20:00 +14°C° 0.3 mm 1 mps 691 mmHg 74%
    21:00 +14°C° 0 mm 1 mps 691 mmHg 74%
    22:00 +13°C° 0 mm 1 mps 691 mmHg 74%
    23:00 +13°C° 0 mm 1 mps 690 mmHg 74%

    25 September, Tuesday

    Time Temperature Precipitation Wind Pressure Humidity
    00:00 +12°C° 0 mm 1 mps 690 mmHg 72%
    01:00 +10°C° 0 mm 2 mps 690 mmHg 70%
    02:00 +10°C° 0 mm 2 mps 690 mmHg 67%
    03:00 +9°C° 0 mm 2 mps 690 mmHg 64%
    04:00 +9°C° 0 mm 2 mps 690 mmHg 60%
    05:00 +9°C° 0 mm 2 mps 690 mmHg 56%
    06:00 +10°C° 0 mm 2 mps 690 mmHg 55%
    07:00 +13°C° 0 mm 2 mps 690 mmHg 54%
    08:00 +15°C° 0 mm 2 mps 691 mmHg 52%
    09:00 +16°C° 0 mm 2 mps 691 mmHg 50%
    10:00 +17°C° 0 mm 2 mps 691 mmHg 47%
    11:00 +18°C° 0 mm 3 mps 691 mmHg 45%
    12:00 +18°C° 0 mm 3 mps 691 mmHg 44%
    13:00 +19°C° 0 mm 3 mps 690 mmHg 44%
    14:00 +19°C° 0 mm 3 mps 690 mmHg 43%
    15:00 +18°C° 0 mm 2 mps 690 mmHg 43%
    16:00 +17°C° 0 mm 2 mps 690 mmHg 42%
    17:00 +16°C° 0 mm 2 mps 690 mmHg 41%
    18:00 +15°C° 0 mm 2 mps 690 mmHg 42%
    19:00 +14°C° 0 mm 2 mps 690 mmHg 42%
    20:00 +12°C° 0 mm 3 mps 690 mmHg 42%
    21:00 +12°C° 0 mm 3 mps 690 mmHg 43%
    22:00 +11°C° 0 mm 3 mps 690 mmHg 45%
    23:00 +11°C° 0 mm 3 mps 690 mmHg 47%

    26 September, Wednesday

    Time Temperature Precipitation Wind Pressure Humidity
    00:00 +11°C° 0 mm 3 mps 689 mmHg 47%
    01:00 +11°C° 0 mm 3 mps 689 mmHg 48%
    02:00 +11°C° 0 mm 3 mps 689 mmHg 48%
    03:00 +11°C° 0 mm 3 mps 689 mmHg 49%
    04:00 +11°C° 0 mm 3 mps 689 mmHg 50%
    05:00 +12°C° 0 mm 3 mps 690 mmHg 51%
    06:00 +13°C° 0 mm 3 mps 690 mmHg 51%
    07:00 +16°C° 0 mm 3 mps 690 mmHg 51%
    08:00 +17°C° 0 mm 3 mps 691 mmHg 51%
    09:00 +18°C° 0 mm 3 mps 691 mmHg 49%
    10:00 +20°C° 0 mm 3 mps 691 mmHg 48%
    11:00 +21°C° 0 mm 3 mps 691 mmHg 46%
    12:00 +21°C° 0 mm 3 mps 690 mmHg 45%
    13:00 +22°C° 0 mm 3 mps 690 mmHg 44%
    14:00 +22°C° 0 mm 3 mps 690 mmHg 43%
    15:00 +21°C° 0 mm 3 mps 690 mmHg 43%
    16:00 +20°C° 0 mm 3 mps 690 mmHg 44%
    17:00 +19°C° 0 mm 3 mps 689 mmHg 45%
    18:00 +18°C° 0 mm 3 mps 689 mmHg 45%
    19:00 +17°C° 0 mm 3 mps 689 mmHg 46%
    20:00 +16°C° 0 mm 3 mps 689 mmHg 46%
    21:00 +16°C° 0 mm 3 mps 689 mmHg 45%
    22:00 +16°C° 0 mm 3 mps 689 mmHg 44%
    23:00 +16°C° 0 mm 3 mps 688 mmHg 43%
    Show more